Change the Weather History Date:

Sunday, October 21, 2012

  Actual Average Record
Temperature  
Mean Temperature 66 °F -  
Max Temperature 81 °F 78 °F 89 °F (1985)
Min Temperature 51 °F 52 °F 28 °F (1989)
Cooling Degree Days 1    
Growing Degree Days 16 (Base 50)    
Moisture  
Dew Point 48 °F    
Average Humidity 59    
Maximum Humidity 86    
Minimum Humidity 29    
Precipitation  
Precipitation 0.00 in - - ()
Sea Level Pressure  
Sea Level Pressure 30.08 in    
Wind  
Wind Speed 3 mph (NNE)    
Max Wind Speed 14 mph    
Max Gust Speed -    
Visibility 10 miles    
Events      
Averages and records for this station are not official NWS values.
T = Trace of Precipitation, MM = Missing Value Source: NWS Daily Summary

Daily Weather History Graph

Daily Weather History Graph

Search for Another Location

Airport or City:

Trip Planner

Search our weather history database for the weather conditions in past years. The results will help you decide how hot, cold, wet, or windy it might be!

Date:

Astronomy

Oct. 21, 2012 Rise Set
Actual Time 6:52 AM CDT 6:07 PM CDT
Civil Twilight 6:28 AM CDT 6:32 PM CDT
Nautical Twilight 6:00 AM CDT 7:00 PM CDT
Astronomical Twilight 5:32 AM CDT 7:28 PM CDT
Moon 1:05 PM CDT (10/21) No Moon Set
Length of Visible Light 12h 04m
Length of Day
11h 15m
Waxing Crescent, 45% of the Moon is Illuminated
Oct 21
Waxing Crescent
Oct 21
First Quarter
Oct 29
Full
Nov 6
Last Quarter
Nov 13
New

Hourly Weather History & Observations

Time (CDT) Temp. Dew Point Humidity Pressure Visibility Wind Dir Wind Speed Gust Speed Precip Events Conditions
12:55 AM 54.1 °F 47.1 °F 77% 30.02 in 10.0 mi Calm Calm - N/A   Clear
1:55 AM 53.1 °F 46.9 °F 80% 30.01 in 10.0 mi Calm Calm - N/A   Clear
2:55 AM 52.5 °F 47.1 °F 82% 30.01 in 10.0 mi Calm Calm - N/A   Clear
3:55 AM 51.8 °F 47.3 °F 85% 30.03 in 10.0 mi Calm Calm - N/A   Clear
4:55 AM 52.0 °F 47.7 °F 85% 30.05 in 10.0 mi Calm Calm - N/A   Clear
5:55 AM 51.3 °F 47.1 °F 86% 30.07 in 10.0 mi Calm Calm - N/A   Clear
6:55 AM 52.3 °F 46.4 °F 80% 30.09 in 10.0 mi NNW 3.5 mph - N/A   Clear
7:55 AM 56.5 °F 48.6 °F 75% 30.11 in 10.0 mi NNE 4.6 mph - N/A   Clear
8:55 AM 64.2 °F 49.8 °F 59% 30.12 in 10.0 mi Variable 4.6 mph - N/A   Clear
9:55 AM 69.8 °F 49.5 °F 48% 30.14 in 10.0 mi East 5.8 mph - N/A   Clear
10:55 AM 73.0 °F 50.0 °F 44% 30.14 in 10.0 mi NNE 8.1 mph - N/A   Clear
11:55 AM 75.9 °F 47.5 °F 36% 30.12 in 10.0 mi NNE 9.2 mph - N/A   Clear
12:55 PM 78.8 °F 45.5 °F 31% 30.10 in 10.0 mi NE 13.8 mph - N/A   Partly Cloudy
1:56 PM 79.5 °F 45.1 °F 30% 30.07 in 10.0 mi NNE 9.2 mph - N/A   Partly Cloudy
2:55 PM 81.1 °F 46.2 °F 29% 30.07 in 10.0 mi North 5.8 mph - N/A   Partly Cloudy
3:56 PM 81.1 °F 46.2 °F 29% 30.06 in 10.0 mi NNE 8.1 mph - N/A   Partly Cloudy
4:56 PM 80.1 °F 45.7 °F 30% 30.06 in 10.0 mi NNE 6.9 mph - N/A   Partly Cloudy
5:55 PM 75.0 °F 49.6 °F 41% 30.07 in 10.0 mi North 3.5 mph - N/A   Scattered Clouds
6:57 PM 68.9 °F 51.6 °F 54% 30.09 in 10.0 mi NNE 2.3 mph - N/A   Scattered Clouds
7:57 PM 66.0 °F 51.8 °F 60% 30.10 in 10.0 mi Calm Calm - N/A   Partly Cloudy
8:58 PM 63.7 °F 51.3 °F 64% 30.10 in 10.0 mi North 2.3 mph - N/A   Partly Cloudy
9:57 PM 60.3 °F 52.9 °F 77% 30.12 in 10.0 mi North 2.3 mph - N/A   Partly Cloudy
10:55 PM 61.3 °F 50.5 °F 68% 30.12 in 10.0 mi NNW 3.5 mph - N/A   Scattered Clouds
11:57 PM 59.2 °F 50.9 °F 74% 30.10 in 10.0 mi NNW 2.3 mph - N/A   Scattered Clouds